TimeCST,TemperatureF,Dew PointF,Humidity,Sea Level PressureIn,VisibilityMPH,Wind Direction,Wind SpeedMPH,Gust SpeedMPH,PrecipitationIn,Events,Conditions,WindDirDegrees,DateUTC
12:53 AM,33.1,30.9,92,30.38,9.0,Calm,Calm,-,N/A,,Clear,0,2012-11-18 06:53:00
1:53 AM,34.0,34.0,100,30.37,10.0,North,3.5,-,N/A,,Clear,10,2012-11-18 07:53:00
2:53 AM,32.0,30.9,96,30.37,4.0,North,3.5,-,N/A,,Clear,360,2012-11-18 08:53:00
3:26 AM,30.2,30.2,100,30.34,1.8,Calm,Calm,-,N/A,,Clear,0,2012-11-18 09:26:00
3:49 AM,30.2,30.2,100,30.34,3.0,Calm,Calm,-,N/A,,Clear,0,2012-11-18 09:49:00
3:53 AM,28.9,28.0,96,30.36,4.0,Calm,Calm,-,N/A,,Clear,0,2012-11-18 09:53:00
3:57 AM,28.4,28.4,100,30.34,1.8,Calm,Calm,-,N/A,,Clear,0,2012-11-18 09:57:00
4:06 AM,30.2,28.4,93,30.34,0.5,Calm,Calm,-,N/A,Fog,Light Freezing Fog,0,2012-11-18 10:06:00
4:14 AM,30.2,28.4,93,30.35,2.0,Calm,Calm,-,N/A,,Clear,0,2012-11-18 10:14:00
4:40 AM,28.4,28.4,100,30.35,0.8,Calm,Calm,-,N/A,,Clear,0,2012-11-18 10:40:00
4:50 AM,30.2,28.4,93,30.35,2.5,Calm,Calm,-,N/A,,Clear,0,2012-11-18 10:50:00
4:53 AM,30.9,28.9,92,30.37,8.0,Calm,Calm,-,N/A,,Clear,0,2012-11-18 10:53:00
5:44 AM,28.4,26.6,93,30.35,1.5,Calm,Calm,-,N/A,,Clear,0,2012-11-18 11:44:00
5:53 AM,28.0,27.0,96,30.38,0.5,Calm,Calm,-,N/A,Fog,Light Freezing Fog,0,2012-11-18 11:53:00
6:53 AM,28.0,28.0,100,30.38,0.2,Calm,Calm,-,N/A,Fog,Light Freezing Fog,0,2012-11-18 12:53:00
7:03 AM,28.4,28.4,100,30.36,2.0,NNE,3.5,-,N/A,,Clear,20,2012-11-18 13:03:00
7:16 AM,30.2,30.2,100,30.36,1.0,Calm,Calm,-,N/A,,Clear,0,2012-11-18 13:16:00
7:33 AM,37.4,33.8,87,30.36,2.5,NE,3.5,-,N/A,,Clear,50,2012-11-18 13:33:00
7:41 AM,39.2,37.4,93,30.36,5.0,Calm,Calm,-,N/A,,Clear,0,2012-11-18 13:41:00
7:53 AM,41.0,39.9,96,30.38,8.0,Calm,Calm,-,N/A,,Clear,0,2012-11-18 13:53:00
8:53 AM,51.1,41.0,68,30.39,10.0,East,5.8,-,N/A,,Clear,100,2012-11-18 14:53:00
9:53 AM,57.9,41.0,53,30.40,10.0,East,4.6,-,N/A,,Clear,100,2012-11-18 15:53:00
10:53 AM,62.1,37.0,39,30.40,10.0,SE,6.9,-,N/A,,Clear,130,2012-11-18 16:53:00
11:53 AM,64.9,37.0,36,30.36,10.0,ESE,4.6,-,N/A,,Clear,110,2012-11-18 17:53:00
12:53 PM,66.9,37.0,33,30.34,10.0,East,3.5,-,N/A,,Clear,90,2012-11-18 18:53:00
1:53 PM,68.0,36.0,31,30.30,10.0,Variable,3.5,-,N/A,,Clear,0,2012-11-18 19:53:00
2:53 PM,68.0,35.1,30,30.30,10.0,SE,4.6,-,N/A,,Clear,140,2012-11-18 20:53:00
3:53 PM,68.0,36.0,31,30.29,10.0,NNE,6.9,-,N/A,,Clear,30,2012-11-18 21:53:00
4:53 PM,61.0,37.0,41,30.30,10.0,NE,4.6,-,N/A,,Clear,40,2012-11-18 22:53:00
5:53 PM,45.0,37.0,74,30.32,10.0,NE,3.5,-,N/A,,Clear,50,2012-11-18 23:53:00
6:53 PM,39.0,33.1,79,30.33,10.0,Calm,Calm,-,N/A,,Clear,0,2012-11-19 00:53:00
7:53 PM,42.1,37.9,85,30.33,10.0,Calm,Calm,-,N/A,,Clear,0,2012-11-19 01:53:00
8:53 PM,36.0,34.0,93,30.33,10.0,Calm,Calm,-,N/A,,Clear,0,2012-11-19 02:53:00
9:53 PM,35.1,33.1,92,30.34,10.0,Calm,Calm,-,N/A,,Clear,0,2012-11-19 03:53:00
10:53 PM,34.0,34.0,100,30.34,7.0,Calm,Calm,-,N/A,,Clear,0,2012-11-19 04:53:00
11:53 PM,33.1,32.0,96,30.34,10.0,Calm,Calm,-,N/A,,Clear,0,2012-11-19 05:53:00